DW6064 Weather Reports


Display with metric or nautical units.
time (UTC)temp
F
wind
direction
speed
MPH
gust
MPH
rain 1hr
in
rain 24hr
in
rain mn
in
humidity
%
barometer
mb
20260510041045 51 327 0.0 0.0 0.00 0.20 0.00 88 1009.9
20260510040538 51 327 0.0 0.0 0.00 0.20 0.00 88 1009.8
20260510040057 52 327 0.0 0.0 0.00 0.20 0.00 88 1009.7
20260510035554 52 327 0.0 0.0 0.00 0.20 0.20 88 1009.7
20260510035027 52 327 0.0 0.0 0.00 0.20 0.20 89 1009.7
20260510034602 52 327 0.0 0.0 0.00 0.20 0.20 88 1009.7
20260510034041 52 327 0.0 0.0 0.00 0.20 0.20 88 1009.7
20260510033535 52 327 0.0 0.0 0.00 0.20 0.20 88 1009.8
20260510033055 52 327 0.0 0.0 0.00 0.20 0.20 88 1009.8
20260510032526 52 327 0.0 0.0 0.00 0.20 0.20 88 1009.9
20260510032044 52 327 0.0 0.0 0.00 0.20 0.20 87 1009.8
20260510031541 53 327 0.0 0.0 0.00 0.20 0.20 87 1009.9
20260510031031 53 327 0.0 0.0 0.00 0.20 0.20 87 1009.9
20260510030549 53 327 0.0 0.0 0.00 0.20 0.20 88 1009.9
20260510030050 53 327 0.0 0.0 0.00 0.20 0.20 88 1009.9
20260510025525 53 327 0.0 0.0 0.00 0.20 0.20 88 1009.9
20260510025054 53 327 0.0 0.0 0.00 0.20 0.20 88 1010.0
20260510024529 53 327 0.0 0.0 0.00 0.20 0.20 88 1009.9
20260510023543 53 327 0.0 0.0 0.00 0.20 0.20 88 1010.0
20260510023042 54 327 0.0 0.0 0.00 0.20 0.20 87 1009.8
20260510022540 54 327 0.0 0.0 0.00 0.20 0.20 87 1009.9
20260510022041 54 327 0.0 0.0 0.00 0.20 0.20 86 1009.9
20260510021541 54 327 0.0 0.0 0.00 0.20 0.20 86 1009.9
20260510021101 54 327 0.0 0.0 0.00 0.20 0.20 86 1009.9
20260510020558 54 327 0.0 0.0 0.00 0.20 0.20 86 1009.8
20260510020054 55 327 0.0 0.0 0.00 0.20 0.20 86 1009.8
20260510015527 55 327 0.0 0.0 0.00 0.20 0.20 86 1009.7
20260510015044 55 327 0.0 0.0 0.00 0.20 0.20 86 1009.6
20260510014540 55 327 0.0 0.0 0.00 0.20 0.20 86 1009.4
20260510014057 55 327 0.0 0.0 0.00 0.20 0.20 85 1009.3
20260510013526 56 327 0.0 0.0 0.00 0.20 0.20 85 1009.2
20260510013105 56 327 0.0 0.0 0.00 0.20 0.20 84 1009.1
20260510012535 56 327 0.0 0.0 0.00 0.20 0.20 84 1009.0
20260510012055 56 327 0.0 0.0 0.00 0.20 0.20 84 1008.9
20260510011527 56 327 0.0 0.0 0.00 0.20 0.20 83 1009.1
20260510011104 56 327 0.0 0.0 0.00 0.20 0.20 83 1009.1
20260510010535 57 327 0.0 0.0 0.00 0.20 0.20 83 1009.0
20260510010026 57 327 0.0 0.0 0.00 0.20 0.20 82 1008.9
20260510005543 57 327 0.0 0.0 0.00 0.20 0.20 82 1008.8
20260510005043 57 327 0.0 1.0 0.00 0.20 0.20 82 1008.7
20260510004540 58 327 0.0 2.0 0.00 0.20 0.20 82 1008.6
20260510004040 58 327 1.0 2.0 0.00 0.20 0.20 81 1008.5
20260510003537 58 327 0.0 0.0 0.00 0.20 0.20 80 1008.4
20260510003055 59 327 0.0 0.0 0.00 0.20 0.20 80 1008.4
20260510002527 59 327 0.0 0.0 0.00 0.20 0.20 80 1008.4
20260510002045 59 327 0.0 0.0 0.00 0.20 0.20 79 1008.5
20260510001543 59 327 0.0 1.0 0.00 0.20 0.20 79 1008.4
20260510001044 60 327 0.0 2.0 0.00 0.20 0.20 78 1008.4
20260510000542 60 327 1.0 2.0 0.00 0.20 0.20 78 1008.4
20260510000037 60 327 1.0 2.0 0.00 0.20 0.20 77 1008.4
20260509235529 61 327 0.0 0.0 0.00 0.20 0.20 76 1008.4
20260509235049 61 327 0.0 1.0 0.00 0.20 0.20 76 1008.3
20260509234543 61 327 0.0 1.0 0.00 0.20 0.20 75 1008.2
20260509234037 61 327 1.0 1.0 0.00 0.20 0.20 76 1008.2
20260509233527 62 327 0.0 1.0 0.00 0.20 0.20 75 1008.1
20260509233046 62 327 0.0 2.0 0.00 0.20 0.20 75 1008.2
20260509232601 62 327 1.0 3.0 0.00 0.20 0.20 75 1008.3
20260509232035 62 327 1.0 3.0 0.00 0.20 0.20 75 1008.1
20260509231527 62 327 1.0 3.0 0.00 0.20 0.20 74 1008.3
20260509231044 62 327 2.0 4.0 0.00 0.20 0.20 74 1008.3
20260509230602 62 327 2.0 5.0 0.00 0.20 0.20 74 1008.4
20260509230036 62 316 3.0 5.0 0.00 0.20 0.20 75 1008.4
20260509225528 63 317 2.0 4.0 0.00 0.20 0.20 74 1008.4
20260509225046 63 300 1.0 5.0 0.00 0.20 0.20 74 1008.4
20260509224537 63 295 3.0 5.0 0.00 0.20 0.20 75 1008.4
20260509224059 63 296 3.0 4.0 0.00 0.20 0.20 75 1008.4
20260509223531 62 46 1.0 2.0 0.00 0.20 0.20 74 1008.4
20260509223026 62 46 0.0 2.0 0.00 0.20 0.20 74 1008.3
20260509222536 62 46 0.0 3.0 0.00 0.20 0.20 74 1008.3
20260509222036 62 46 2.0 3.0 0.00 0.20 0.20 76 1008.3
20260509221528 62 46 1.0 3.0 0.00 0.20 0.20 75 1008.3
20260509221044 62 44 1.0 3.0 0.00 0.20 0.20 74 1008.4
20260509220538 62 44 1.0 3.0 0.00 0.20 0.20 75 1008.4
20260509220032 62 14 0.0 4.0 0.00 0.20 0.20 75 1008.5
20260509215524 62 14 2.0 4.0 0.00 0.20 0.20 76 1008.5
20260509215037 62 33 1.0 5.0 0.00 0.20 0.20 76 1008.5
20260509214532 62 360 3.0 5.0 0.00 0.20 0.20 75 1008.5
20260509214027 62 348 4.0 5.0 0.00 0.20 0.20 75 1008.6
20260509213543 62 28 1.0 6.0 0.00 0.20 0.20 76 1008.6
20260509213037 62 21 2.0 6.0 0.00 0.20 0.20 75 1008.6
20260509212526 62 24 2.0 5.0 0.00 0.20 0.20 75 1008.7
20260509212044 62 38 2.0 6.0 0.00 0.20 0.20 76 1008.6
20260509211537 62 9 3.0 6.0 0.00 0.20 0.20 76 1008.7
20260509211034 61 16 2.0 5.0 0.00 0.20 0.20 77 1008.7
20260509210528 61 5 2.0 5.0 0.00 0.20 0.20 76 1008.8
20260509210048 61 360 2.0 8.0 0.00 0.20 0.20 79 1008.9
20260509205544 61 46 3.0 8.0 0.00 0.20 0.20 78 1009.0
20260509205039 61 58 2.0 5.0 0.00 0.20 0.20 79 1009.0
20260509204542 61 13 3.0 6.0 0.00 0.20 0.20 78 1009.0
20260509204043 61 26 2.0 9.0 0.00 0.20 0.20 78 1009.0
20260509203536 61 11 4.0 9.0 0.00 0.20 0.20 78 1009.2
20260509203032 61 351 2.0 5.0 0.00 0.20 0.20 77 1009.2
20260509202525 61 34 1.0 5.0 0.00 0.20 0.20 76 1009.2
20260509202044 61 355 2.0 6.0 0.00 0.20 0.20 75 1009.2
20260509201602 62 321 4.0 6.0 0.00 0.20 0.20 74 1009.1
20260509201037 62 338 3.0 8.0 0.00 0.20 0.20 75 1009.2
20260509200527 62 317 3.0 8.0 0.00 0.20 0.20 73 1009.2
20260509200042 62 332 3.0 8.0 0.00 0.20 0.20 74 1009.3
20260509195541 62 317 3.0 6.0 0.00 0.20 0.20 74 1009.4
20260509195042 62 329 4.0 9.0 0.00 0.20 0.20 73 1009.3
20260509194540 62 328 4.0 9.0 0.00 0.20 0.20 73 1009.4
20260509194101 62 290 4.0 9.0 0.00 0.20 0.20 71 1009.4
20260509193540 63 287 6.0 9.0 0.00 0.20 0.20 71 1009.5
20260509193102 63 287 5.0 7.0 0.00 0.20 0.20 69 1009.2
20260509192536 63 200 2.0 3.0 0.00 0.20 0.20 69 1009.1
20260509192029 63 200 2.0 3.0 0.00 0.20 0.20 69 1009.0
20260509191525 63 128 1.0 4.0 0.00 0.20 0.20 69 1009.0
20260509191101 63 128 1.0 4.0 0.00 0.20 0.20 70 1009.0
20260509190557 63 146 2.0 4.0 0.00 0.20 0.20 73 1008.9
20260509190035 63 289 1.0 2.0 0.00 0.20 0.20 73 1008.9
20260509185526 62 289 0.0 2.0 0.00 0.20 0.20 72 1009.1
20260509185047 62 267 0.0 5.0 0.00 0.20 0.20 75 1009.3
20260509184538 61 251 2.0 5.0 0.00 0.20 0.20 76 1009.1
20260509184101 61 192 3.0 5.0 0.00 0.20 0.20 75 1009.5
20260509183530 61 217 1.0 6.0 0.00 0.20 0.20 78 1009.6
20260509183026 60 198 4.0 6.0 0.00 0.20 0.20 78 1009.7
20260509182534 60 309 2.0 4.0 0.00 0.20 0.20 80 1009.6
20260509182031 60 265 2.0 4.0 0.00 0.20 0.20 80 1009.9
20260509181524 59 225 0.0 4.0 0.00 0.20 0.20 80 1009.8
20260509181042 59 195 1.0 3.0 0.00 0.20 0.20 81 1010.0
20260509180540 59 237 0.0 7.0 0.00 0.20 0.20 81 1009.9
20260509180034 58 163 3.0 7.0 0.00 0.20 0.20 81 1009.9
20260509175526 58 194 5.0 7.0 0.00 0.20 0.20 81 1010.0
20260509175042 58 155 4.0 8.0 0.00 0.20 0.20 82 1010.0
20260509174534 59 144 6.0 8.0 0.00 0.20 0.20 83 1010.0
20260509174057 58 188 1.0 5.0 0.00 0.20 0.20 85 1010.0
20260509173529 58 146 4.0 5.0 0.00 0.20 0.20 86 1010.1
20260509173025 58 155 3.0 5.0 0.00 0.20 0.20 85 1010.1
20260509172543 58 138 0.0 4.0 0.00 0.20 0.20 87 1010.0
20260509172105 57 138 1.0 5.0 0.00 0.20 0.20 88 1010.0
20260509171538 57 123 2.0 7.0 0.00 0.20 0.20 88 1010.2
20260509171042 57 140 4.0 7.0 0.00 0.20 0.20 88 1010.4
20260509170541 56 143 4.0 7.0 0.00 0.20 0.20 88 1010.4
20260509170041 56 125 4.0 7.0 0.00 0.20 0.20 88 1010.5
20260509165533 56 144 3.0 7.0 0.00 0.20 0.20 89 1010.7
20260509165054 56 127 4.0 7.0 0.00 0.20 0.20 88 1010.7
20260509164525 56 140 4.0 7.0 0.00 0.20 0.20 88 1010.9
20260509164044 56 142 4.0 7.0 0.00 0.20 0.20 88 1010.8
20260509163536 56 157 4.0 7.0 0.00 0.20 0.20 88 1010.7
20260509163057 56 146 4.0 7.0 0.00 0.20 0.20 87 1010.7
20260509162530 56 168 5.0 7.0 0.00 0.20 0.20 88 1010.7
20260509162047 56 146 4.0 6.0 0.00 0.20 0.20 88 1010.7
20260509161544 56 121 4.0 6.0 0.01 0.20 0.20 88 1010.5
20260509161045 56 130 3.0 4.0 0.01 0.20 0.20 89 1010.5
20260509160544 56 46 1.0 3.0 0.02 0.20 0.20 90 1010.5
20260509160104 55 355 1.0 3.0 0.02 0.20 0.20 89 1010.4
20260509155540 55 318 0.0 3.0 0.03 0.20 0.20 89 1010.4
20260509155041 55 318 1.0 3.0 0.04 0.20 0.20 90 1010.3
20260509154535 55 85 0.0 3.0 0.05 0.20 0.20 90 1010.2
20260509154026 55 85 2.0 4.0 0.06 0.20 0.20 90 1010.1
20260509153524 55 85 2.0 4.0 0.07 0.20 0.20 91 1010.2
20260509153044 55 57 1.0 4.0 0.08 0.20 0.20 90 1010.1
20260509152544 55 5 0.0 3.0 0.09 0.20 0.20 90 1010.3
20260509152043 55 355 2.0 3.0 0.10 0.20 0.20 90 1010.3
20260509151540 54 360 1.0 5.0 0.11 0.19 0.19 90 1010.4
20260509151042 54 5 0.0 5.0 0.12 0.19 0.19 88 1010.6
20260509150537 54 13 2.0 3.0 0.12 0.18 0.18 88 1010.7
20260509150033 54 294 1.0 8.0 0.13 0.18 0.18 88 1010.9
20260509145527 54 294 1.0 8.0 0.12 0.17 0.17 87 1011.0
20260509145104 54 279 3.0 7.0 0.12 0.16 0.16 86 1011.1
20260509144540 55 103 1.0 3.0 0.11 0.15 0.15 87 1011.2
20260509144034 55 156 1.0 3.0 0.11 0.14 0.14 86 1011.3
20260509143527 55 156 2.0 3.0 0.10 0.13 0.13 87 1011.3
20260509143050 55 156 2.0 3.0 0.10 0.12 0.12 87 1011.3
20260509142524 55 156 1.0 5.0 0.09 0.11 0.11 86 1011.1
20260509142103 55 156 2.0 5.0 0.09 0.10 0.10 86 1011.1
20260509141542 55 156 3.0 5.0 0.07 0.08 0.08 85 1011.0
20260509141104 55 161 4.0 5.0 0.06 0.07 0.07 84 1011.0
20260509140538 55 147 3.0 4.0 0.05 0.06 0.06 84 1010.9
20260509140036 55 147 3.0 4.0 0.04 0.05 0.05 83 1010.8
20260509135536 56 140 2.0 4.0 0.04 0.05 0.05 83 1010.8
20260509135031 56 132 2.0 5.0 0.03 0.04 0.04 82 1010.7
20260509134548 56 125 3.0 7.0 0.03 0.04 0.04 82 1010.7
20260509134047 56 144 4.0 7.0 0.02 0.03 0.03 82 1010.7
20260509133544 56 134 4.0 7.0 0.02 0.03 0.03 82 1010.7
20260509133044 56 134 4.0 7.0 0.01 0.02 0.02 82 1010.7
20260509132544 56 139 4.0 8.0 0.01 0.02 0.02 81 1010.8
20260509132041 56 147 5.0 8.0 0.00 0.01 0.01 80 1010.7
20260509131535 56 131 4.0 5.0 0.00 0.01 0.01 80 1010.7
20260509131026 56 133 3.0 5.0 0.00 0.01 0.01 78 1010.6
20260509130539 56 161 3.0 5.0 0.00 0.01 0.01 78 1010.7
20260509130035 55 135 1.0 3.0 0.00 0.01 0.01 79 1010.6
20260509125555 55 135 2.0 4.0 0.00 0.01 0.01 79 1010.6
20260509125030 55 135 2.0 4.0 0.00 0.01 0.01 81 1010.6
20260509124548 55 135 2.0 4.0 0.00 0.01 0.01 82 1010.7
20260509124041 54 135 2.0 3.0 0.00 0.01 0.01 81 1010.7
20260509123532 54 160 2.0 5.0 0.01 0.01 0.01 81 1010.8
20260509123025 54 178 3.0 7.0 0.01 0.01 0.01 81 1010.8
20260509122543 54 176 5.0 7.0 0.01 0.01 0.01 82 1010.9
20260509122037 54 161 4.0 5.0 0.01 0.01 0.01 82 1010.9
20260509121531 54 172 2.0 3.0 0.01 0.01 0.01 82 1010.8
20260509121026 53 172 1.0 4.0 0.01 0.01 0.01 82 1010.9
20260509120543 53 172 2.0 7.0 0.01 0.01 0.01 83 1010.8
20260509120104 53 156 4.0 7.0 0.01 0.01 0.01 83 1010.9
20260509115601 53 161 5.0 6.0 0.01 0.01 0.01 83 1011.0
20260509115042 53 355 1.0 3.0 0.01 0.01 0.01 83 1010.8
20260509114541 53 355 1.0 3.0 0.01 0.01 0.01 82 1010.6
20260509114041 53 63 1.0 2.0 0.01 0.01 0.01 82 1010.6
20260509113537 53 121 0.0 2.0 0.00 0.00 0.00 82 1010.7
20260509113032 53 121 1.0 2.0 0.00 0.00 0.00 80 1010.8
20260509112548 53 121 2.0 4.0 0.00 0.00 0.00 79 1010.8
20260509112043 53 121 2.0 4.0 0.00 0.00 0.00 79 1010.8
20260509111539 53 121 0.0 3.0 0.00 0.00 0.00 79 1010.8
20260509111101 53 36 0.0 2.0 0.00 0.00 0.00 80 1010.6
20260509110531 53 36 0.0 5.0 0.00 0.00 0.00 79 1010.6
20260509110027 53 58 3.0 5.0 0.00 0.00 0.00 79 1010.3
20260509105539 53 307 0.0 3.0 0.00 0.00 0.00 79 1010.4
20260509105033 53 307 0.0 2.0 0.00 0.00 0.00 78 1010.3
20260509104528 53 307 1.0 2.0 0.00 0.00 0.00 77 1010.4
20260509104028 53 307 0.0 2.0 0.00 0.00 0.00 77 1010.2
20260509103544 53 307 0.0 2.0 0.00 0.00 0.00 78 1010.1
20260509103038 53 307 0.0 2.0 0.00 0.00 0.00 76 1010.2
20260509102531 53 307 1.0 2.0 0.00 0.00 0.00 76 1010.1
20260509102028 53 307 1.0 4.0 0.00 0.00 0.00 75 1010.0
20260509101543 53 307 2.0 4.0 0.00 0.00 0.00 75 1010.0
20260509101043 53 345 2.0 3.0 0.00 0.00 0.00 75 1009.8
20260509100540 53 345 1.0 2.0 0.00 0.00 0.00 75 1009.7
20260509100035 53 345 0.0 0.0 0.00 0.00 0.00 75 1009.7
20260509095534 53 345 0.0 2.0 0.00 0.00 0.00 74 1009.5
20260509095052 53 345 1.0 2.0 0.00 0.00 0.00 74 1009.6
20260509094526 53 345 0.0 2.0 0.00 0.00 0.00 74 1009.7
20260509094106 53 345 0.0 2.0 0.00 0.00 0.00 74 1009.6
20260509093542 53 345 0.0 2.0 0.00 0.00 0.00 74 1009.5
20260509093041 53 345 1.0 4.0 0.00 0.00 0.00 73 1009.6
20260509092538 53 333 2.0 4.0 0.00 0.00 0.00 73 1009.7
20260509092034 53 338 0.0 4.0 0.00 0.00 0.00 73 1009.6
20260509091551 53 338 1.0 4.0 0.00 0.00 0.00 73 1009.6
20260509091026 53 323 3.0 4.0 0.00 0.00 0.00 73 1009.8
20260509090543 53 323 3.0 4.0 0.00 0.00 0.00 73 1009.7
20260509090044 53 318 2.0 4.0 0.00 0.00 0.00 73 1009.6
20260509085538 53 312 3.0 4.0 0.00 0.00 0.00 73 1009.7
20260509085032 53 310 0.0 0.0 0.00 0.00 0.00 74 1009.6
20260509084548 53 309 0.0 0.0 0.00 0.00 0.00 74 1009.7
20260509084045 53 310 0.0 0.0 0.00 0.00 0.00 73 1009.7
20260509083538 54 310 0.0 0.0 0.00 0.00 0.00 73 1009.7
20260509083057 54 310 0.0 0.0 0.00 0.00 0.00 73 1009.6
20260509082530 54 310 0.0 0.0 0.00 0.00 0.00 73 1009.8
20260509082051 54 310 0.0 2.0 0.00 0.00 0.00 73 1009.9
20260509081548 54 310 0.0 2.0 0.00 0.00 0.00 73 1009.9
20260509081047 54 310 2.0 3.0 0.00 0.00 0.00 72 1009.9
20260509080605 54 310 2.0 4.0 0.00 0.00 0.00 71 1009.9
20260509080037 54 310 2.0 4.0 0.00 0.00 0.00 72 1009.9
20260509075531 54 20 2.0 3.0 0.00 0.00 0.00 72 1009.9
20260509075025 54 57 1.0 3.0 0.00 0.00 0.00 72 1009.8
20260509074536 54 57 0.0 1.0 0.00 0.00 0.00 72 1009.7
20260509074039 54 57 0.0 1.0 0.00 0.00 0.00 72 1009.7
20260509073531 54 57 0.0 1.0 0.00 0.00 0.00 71 1009.7
20260509073027 54 57 0.0 2.0 0.00 0.00 0.00 71 1009.9
20260509072544 54 57 0.0 3.0 0.00 0.00 0.00 71 1009.9
20260509072043 54 57 1.0 4.0 0.00 0.00 0.00 71 1009.8
20260509071541 54 57 1.0 5.0 0.00 0.00 0.00 70 1010.0
20260509071041 54 62 3.0 5.0 0.00 0.00 0.00 71 1010.0
20260509070540 54 55 2.0 5.0 0.00 0.00 0.00 71 1010.0
20260509070039 54 53 3.0 5.0 0.00 0.00 0.00 70 1010.0
20260509065537 54 32 2.0 7.0 0.00 0.00 0.00 70 1010.1
20260509065028 54 59 3.0 7.0 0.00 0.00 0.00 70 1010.2
20260509064547 54 52 3.0 6.0 0.00 0.00 0.00 70 1010.2
20260509064105 54 54 3.0 6.0 0.00 0.00 0.00 70 1010.2
20260509063542 54 32 2.0 6.0 0.00 0.00 0.00 70 1010.3
20260509063102 54 37 3.0 6.0 0.00 0.00 0.00 70 1010.3
20260509062536 54 25 3.0 6.0 0.00 0.00 0.00 69 1010.3
20260509062031 55 5 3.0 6.0 0.00 0.00 0.00 68 1010.4
20260509061524 55 355 3.0 5.0 0.00 0.00 0.00 68 1010.3
20260509061042 55 9 2.0 5.0 0.00 0.00 0.00 69 1010.4
20260509060539 55 340 3.0 5.0 0.00 0.00 0.00 68 1010.6
20260509060034 55 334 3.0 4.0 0.00 0.00 0.00 68 1010.6
20260509055526 55 355 1.0 2.0 0.00 0.00 0.00 68 1010.5
20260509055025 55 355 1.0 2.0 0.00 0.00 0.00 68 1010.6
20260509054600 55 355 0.0 2.0 0.00 0.00 0.00 67 1010.5
20260509054041 55 355 0.0 2.0 0.00 0.00 0.00 68 1010.5
20260509053532 55 355 0.0 2.0 0.00 0.00 0.00 67 1010.4
20260509053027 55 355 1.0 2.0 0.00 0.00 0.00 67 1010.5
20260509052538 56 355 0.0 3.0 0.00 0.00 0.00 68 1010.6
20260509052034 55 355 0.0 3.0 0.00 0.00 0.00 67 1010.6
20260509051526 55 355 1.0 4.0 0.00 0.00 0.00 67 1010.5
20260509051044 55 348 1.0 4.0 0.00 0.00 0.00 66 1010.5
20260509050541 55 355 2.0 4.0 0.00 0.00 0.00 67 1010.6
20260509050038 55 355 2.0 4.0 0.00 0.00 0.00 68 1010.5
20260509045529 55 341 2.0 4.0 0.00 0.00 0.00 68 1010.6
20260509045044 55 331 2.0 4.0 0.00 0.00 0.00 68 1010.6
20260509044532 55 298 2.0 4.0 0.00 0.00 0.00 68 1010.6
20260509044026 56 351 1.0 3.0 0.00 0.00 0.00 68 1010.7
20260509043542 56 128 1.0 3.0 0.00 0.00 0.00 68 1010.7
20260509043037 56 355 1.0 3.0 0.00 0.00 0.00 68 1010.8
20260509042531 56 355 1.0 3.0 0.00 0.00 0.00 68 1010.8
20260509042026 56 355 0.0 3.0 0.00 0.00 0.00 67 1010.8
20260509041603 56 355 0.0 0.0 0.00 0.00 0.00 67 1011.0